Year,Month,Day,Hour,Minute,Value (Times are PST for temperature in C)
2018,04,22,00,00,6.80
2018,04,22,00,01,6.80
2018,04,22,00,02,6.80
2018,04,22,00,03,6.80
2018,04,22,00,04,6.70
2018,04,22,00,05,6.70
2018,04,22,00,06,6.70
2018,04,22,00,07,6.70
2018,04,22,00,08,6.70
2018,04,22,00,09,6.70
2018,04,22,00,10,6.70
2018,04,22,00,11,6.70
2018,04,22,00,12,6.70
2018,04,22,00,13,6.70
2018,04,22,00,14,6.70
2018,04,22,00,15,6.70
2018,04,22,00,16,6.70
2018,04,22,00,17,6.70
2018,04,22,00,18,6.70
2018,04,22,00,19,6.70
2018,04,22,00,20,6.70
2018,04,22,00,21,6.70
2018,04,22,00,22,6.70
2018,04,22,00,23,6.60
2018,04,22,00,24,6.60
2018,04,22,00,25,6.60
2018,04,22,00,26,6.60
2018,04,22,00,27,6.60
2018,04,22,00,28,6.60
2018,04,22,00,29,6.50
2018,04,22,00,30,6.50
2018,04,22,00,31,6.50
2018,04,22,00,32,6.50
2018,04,22,00,33,6.50
2018,04,22,00,34,6.50
2018,04,22,00,35,6.50
2018,04,22,00,36,6.50
2018,04,22,00,37,6.40
2018,04,22,00,38,6.40
2018,04,22,00,39,6.40
2018,04,22,00,40,6.40
2018,04,22,00,41,6.40
2018,04,22,00,42,6.40
2018,04,22,00,43,6.40
2018,04,22,00,44,6.40
2018,04,22,00,45,6.40
2018,04,22,00,46,6.40
2018,04,22,00,47,6.40
2018,04,22,00,48,6.30
2018,04,22,00,49,6.30
2018,04,22,00,50,6.30
2018,04,22,00,51,6.30
2018,04,22,00,52,6.30
2018,04,22,00,53,6.30
2018,04,22,00,54,6.20
2018,04,22,00,55,6.20
2018,04,22,00,56,6.20
2018,04,22,00,57,6.20
2018,04,22,00,58,6.20
2018,04,22,00,59,6.20
2018,04,22,01,00,6.10
2018,04,22,01,01,6.10
2018,04,22,01,02,6.10
2018,04,22,01,03,6.10
2018,04,22,01,04,6.10
2018,04,22,01,05,6.10
2018,04,22,01,06,6.10
2018,04,22,01,07,6.10
2018,04,22,01,08,6.00
2018,04,22,01,09,6.00
2018,04,22,01,10,6.00
2018,04,22,01,11,6.00
2018,04,22,01,12,6.00
2018,04,22,01,13,6.00
2018,04,22,01,14,6.00
2018,04,22,01,15,6.00
2018,04,22,01,16,6.00
2018,04,22,01,17,6.00
2018,04,22,01,18,6.00
2018,04,22,01,19,6.00
2018,04,22,01,20,5.90
2018,04,22,01,21,5.90
2018,04,22,01,22,5.90
2018,04,22,01,23,5.90
2018,04,22,01,24,5.90
2018,04,22,01,25,5.80
2018,04,22,01,26,5.80
2018,04,22,01,27,5.80
2018,04,22,01,28,5.80
2018,04,22,01,29,5.80
2018,04,22,01,30,5.80
2018,04,22,01,31,5.80
2018,04,22,01,32,5.80
2018,04,22,01,33,5.80
2018,04,22,01,34,5.80
2018,04,22,01,35,5.70
2018,04,22,01,36,5.70
2018,04,22,01,37,5.70
2018,04,22,01,38,5.70
2018,04,22,01,39,5.70
2018,04,22,01,40,5.70
2018,04,22,01,41,5.70
2018,04,22,01,42,5.70
2018,04,22,01,43,5.70
2018,04,22,01,44,5.60
2018,04,22,01,45,5.60
2018,04,22,01,46,5.60
2018,04,22,01,47,5.60
2018,04,22,01,48,5.60
2018,04,22,01,49,5.60
2018,04,22,01,50,5.60
2018,04,22,01,51,5.60
2018,04,22,01,52,5.60
2018,04,22,01,53,5.60
2018,04,22,01,54,5.60
2018,04,22,01,55,5.60
2018,04,22,01,56,5.60
2018,04,22,01,57,5.60
2018,04,22,01,58,5.60
2018,04,22,01,59,5.60
2018,04,22,02,00,5.60
2018,04,22,02,01,5.60
2018,04,22,02,02,5.60
2018,04,22,02,03,5.60
2018,04,22,02,04,5.50
2018,04,22,02,05,5.50
2018,04,22,02,06,5.50
2018,04,22,02,07,5.50
2018,04,22,02,08,5.50
2018,04,22,02,09,5.50
2018,04,22,02,10,5.50
2018,04,22,02,11,5.50
2018,04,22,02,12,5.50
2018,04,22,02,13,5.50
2018,04,22,02,14,5.50
2018,04,22,02,15,5.40
2018,04,22,02,16,5.40
2018,04,22,02,17,5.40
2018,04,22,02,18,5.40
2018,04,22,02,19,5.40
2018,04,22,02,20,5.30
2018,04,22,02,21,5.30
2018,04,22,02,22,5.30
2018,04,22,02,23,5.30
2018,04,22,02,24,5.30
2018,04,22,02,25,5.30
2018,04,22,02,26,5.30
2018,04,22,02,27,5.30
2018,04,22,02,28,5.30
2018,04,22,02,29,5.30
2018,04,22,02,30,5.30
2018,04,22,02,31,5.30
2018,04,22,02,32,5.30
2018,04,22,02,33,5.40
2018,04,22,02,34,5.40
2018,04,22,02,35,5.40
2018,04,22,02,36,5.40
2018,04,22,02,37,5.40
2018,04,22,02,38,5.40
2018,04,22,02,39,5.40
2018,04,22,02,40,5.40
2018,04,22,02,41,5.40
2018,04,22,02,42,5.40
2018,04,22,02,43,5.40
2018,04,22,02,44,5.40
2018,04,22,02,45,5.40
2018,04,22,02,46,5.30
2018,04,22,02,47,5.30
2018,04,22,02,48,5.30
2018,04,22,02,49,5.30
2018,04,22,02,50,5.30
2018,04,22,02,51,5.30
2018,04,22,02,52,5.20
2018,04,22,02,53,5.20
2018,04,22,02,54,5.20
2018,04,22,02,55,5.20
2018,04,22,02,56,5.20
2018,04,22,02,57,5.20
2018,04,22,02,58,5.10
2018,04,22,02,59,5.10
2018,04,22,03,00,5.10
2018,04,22,03,01,5.10
2018,04,22,03,02,5.10
2018,04,22,03,03,5.10
2018,04,22,03,04,5.10
2018,04,22,03,05,5.00
2018,04,22,03,06,5.00
2018,04,22,03,07,5.00
2018,04,22,03,08,5.00
2018,04,22,03,09,4.90
2018,04,22,03,10,4.90
2018,04,22,03,11,4.90
2018,04,22,03,12,4.90
2018,04,22,03,13,4.90
2018,04,22,03,14,4.90
2018,04,22,03,15,4.90
2018,04,22,03,16,4.80
2018,04,22,03,17,4.80
2018,04,22,03,18,4.80
2018,04,22,03,19,4.80
2018,04,22,03,20,4.80
2018,04,22,03,21,4.80
2018,04,22,03,22,4.80
2018,04,22,03,23,4.80
2018,04,22,03,24,4.80
2018,04,22,03,25,4.80
2018,04,22,03,26,4.80
2018,04,22,03,27,4.80
2018,04,22,03,28,4.80
2018,04,22,03,29,4.80
2018,04,22,03,30,4.70
2018,04,22,03,31,4.70
2018,04,22,03,32,4.70
2018,04,22,03,33,4.70
2018,04,22,03,34,4.70
2018,04,22,03,35,4.70
2018,04,22,03,36,4.70
2018,04,22,03,37,4.70
2018,04,22,03,38,4.70
2018,04,22,03,39,4.70
2018,04,22,03,40,4.60
2018,04,22,03,41,4.60
2018,04,22,03,42,4.60
2018,04,22,03,43,4.60
2018,04,22,03,44,4.60
2018,04,22,03,45,4.60
2018,04,22,03,46,4.60
2018,04,22,03,47,4.60
2018,04,22,03,48,4.60
2018,04,22,03,49,4.60
2018,04,22,03,50,4.60
2018,04,22,03,51,4.60
2018,04,22,03,52,4.60
2018,04,22,03,53,4.60
2018,04,22,03,54,4.60
2018,04,22,03,55,4.60
2018,04,22,03,56,4.60
2018,04,22,03,57,4.60
2018,04,22,03,58,4.60
2018,04,22,03,59,4.60
2018,04,22,04,00,4.60
2018,04,22,04,01,4.60
2018,04,22,04,02,4.60
2018,04,22,04,03,4.60
2018,04,22,04,04,4.60
2018,04,22,04,05,4.60
2018,04,22,04,06,4.60
2018,04,22,04,07,4.60
2018,04,22,04,08,4.60
2018,04,22,04,09,4.60
2018,04,22,04,10,4.60
2018,04,22,04,11,4.60
2018,04,22,04,12,4.60
2018,04,22,04,13,4.60
2018,04,22,04,14,4.60
2018,04,22,04,15,4.60
2018,04,22,04,16,4.60
2018,04,22,04,17,4.60
2018,04,22,04,18,4.60
2018,04,22,04,19,4.60
2018,04,22,04,20,4.60
2018,04,22,04,21,4.50
2018,04,22,04,22,4.50
2018,04,22,04,23,4.50
2018,04,22,04,24,4.50
2018,04,22,04,25,4.50
2018,04,22,04,26,4.50
2018,04,22,04,27,4.50
2018,04,22,04,28,4.50
2018,04,22,04,29,4.50
2018,04,22,04,30,4.50
2018,04,22,04,31,4.50
2018,04,22,04,32,4.60
2018,04,22,04,33,4.60
2018,04,22,04,34,4.60
2018,04,22,04,35,4.60
2018,04,22,04,36,4.70
2018,04,22,04,37,4.70
2018,04,22,04,38,4.70
2018,04,22,04,39,4.70
2018,04,22,04,40,4.70
2018,04,22,04,41,4.70
2018,04,22,04,42,4.80
2018,04,22,04,43,4.80
2018,04,22,04,44,4.80
2018,04,22,04,45,4.80
2018,04,22,04,46,4.80
2018,04,22,04,47,4.80
2018,04,22,04,48,4.80
2018,04,22,04,49,4.80
2018,04,22,04,50,4.80
2018,04,22,04,51,4.80
2018,04,22,04,52,4.80
2018,04,22,04,53,4.80
2018,04,22,04,54,4.80
2018,04,22,04,55,4.80
2018,04,22,04,56,4.80
2018,04,22,04,57,4.80
2018,04,22,04,58,4.80
2018,04,22,04,59,4.80
2018,04,22,05,00,4.80
2018,04,22,05,01,4.80
2018,04,22,05,02,4.80
2018,04,22,05,03,4.80
2018,04,22,05,04,4.80
2018,04,22,05,05,4.80
2018,04,22,05,06,4.80
2018,04,22,05,07,4.70
2018,04,22,05,08,4.70
2018,04,22,05,09,4.70
2018,04,22,05,10,4.70
2018,04,22,05,11,4.70
2018,04,22,05,12,4.70
2018,04,22,05,13,4.70
2018,04,22,05,14,4.60
2018,04,22,05,15,4.60
2018,04,22,05,16,4.60
2018,04,22,05,17,4.60
2018,04,22,05,18,4.60
2018,04,22,05,19,4.60
2018,04,22,05,20,4.60
2018,04,22,05,21,4.50
2018,04,22,05,22,4.50
2018,04,22,05,23,4.50
2018,04,22,05,24,4.50
2018,04,22,05,25,4.50
2018,04,22,05,26,4.50
2018,04,22,05,27,4.50
2018,04,22,05,28,4.50
2018,04,22,05,29,4.40
2018,04,22,05,30,4.40
2018,04,22,05,31,4.40
2018,04,22,05,32,4.40
2018,04,22,05,33,4.40
2018,04,22,05,34,4.40
2018,04,22,05,35,4.40
2018,04,22,05,36,4.40
2018,04,22,05,37,4.40
2018,04,22,05,38,4.40
2018,04,22,05,39,4.40
2018,04,22,05,40,4.40
2018,04,22,05,41,4.40
2018,04,22,05,42,4.40
2018,04,22,05,43,4.40
2018,04,22,05,44,4.40
2018,04,22,05,45,4.40
2018,04,22,05,46,4.40
2018,04,22,05,47,4.40
2018,04,22,05,48,4.40
2018,04,22,05,49,4.40
2018,04,22,05,50,4.40
2018,04,22,05,51,4.30
2018,04,22,05,52,4.30
2018,04,22,05,53,4.30
2018,04,22,05,54,4.30
2018,04,22,05,55,4.30
2018,04,22,05,56,4.30
2018,04,22,05,57,4.30
2018,04,22,05,58,4.30
2018,04,22,05,59,4.30
2018,04,22,06,00,4.30
2018,04,22,06,01,4.30
2018,04,22,06,02,4.30
2018,04,22,06,03,4.30
2018,04,22,06,04,4.30
2018,04,22,06,05,4.30
2018,04,22,06,06,4.30
2018,04,22,06,07,4.30
2018,04,22,06,08,4.30
2018,04,22,06,09,4.30
2018,04,22,06,10,4.20
2018,04,22,06,11,4.20
2018,04,22,06,12,4.20
2018,04,22,06,13,4.20
2018,04,22,06,14,4.20
2018,04,22,06,15,4.20
2018,04,22,06,16,4.20
2018,04,22,06,17,4.20
2018,04,22,06,18,4.20
2018,04,22,06,19,4.20
2018,04,22,06,20,4.20
2018,04,22,06,21,4.20
2018,04,22,06,22,4.20
2018,04,22,06,23,4.20
2018,04,22,06,24,4.20
2018,04,22,06,25,4.10
2018,04,22,06,26,4.10
2018,04,22,06,27,4.10
2018,04,22,06,28,4.10
2018,04,22,06,29,4.10
2018,04,22,06,30,4.10
2018,04,22,06,31,4.10
2018,04,22,06,32,4.10
2018,04,22,06,33,4.10
2018,04,22,06,34,4.10
2018,04,22,06,35,4.00
2018,04,22,06,36,4.00
2018,04,22,06,37,4.00
2018,04,22,06,38,4.00
2018,04,22,06,39,4.00
2018,04,22,06,40,4.00
2018,04,22,06,41,4.00
2018,04,22,06,42,4.00
2018,04,22,06,43,4.00
2018,04,22,06,44,3.90
2018,04,22,06,45,3.90
2018,04,22,06,46,3.90
2018,04,22,06,47,3.90
2018,04,22,06,48,3.90
2018,04,22,06,49,3.90
2018,04,22,06,50,3.90
2018,04,22,06,51,3.90
2018,04,22,06,52,3.90
2018,04,22,06,53,3.90
2018,04,22,06,54,3.90
2018,04,22,06,55,3.90
2018,04,22,06,56,3.90
2018,04,22,06,57,3.90
2018,04,22,06,58,3.90
2018,04,22,06,59,3.90
2018,04,22,07,00,3.90
2018,04,22,07,01,3.90
2018,04,22,07,02,3.90
2018,04,22,07,03,3.90
2018,04,22,07,04,3.90
2018,04,22,07,05,3.90
2018,04,22,07,06,3.90
2018,04,22,07,07,3.90
2018,04,22,07,08,3.90
2018,04,22,07,09,4.00
2018,04,22,07,10,4.00
2018,04,22,07,11,4.00
2018,04,22,07,12,4.10
2018,04,22,07,13,4.10
2018,04,22,07,14,4.10
2018,04,22,07,15,4.10
2018,04,22,07,16,4.10
2018,04,22,07,17,4.20
2018,04,22,07,18,4.20
2018,04,22,07,19,4.20
2018,04,22,07,20,4.20
2018,04,22,07,21,4.20
2018,04,22,07,22,4.30
2018,04,22,07,23,4.30
2018,04,22,07,24,4.30
2018,04,22,07,25,4.30
2018,04,22,07,26,4.30
2018,04,22,07,27,4.30
2018,04,22,07,28,4.30
2018,04,22,07,29,4.40
2018,04,22,07,30,4.40
2018,04,22,07,31,4.40
2018,04,22,07,32,4.50
2018,04,22,07,33,4.50
2018,04,22,07,34,4.60
2018,04,22,07,35,4.60
2018,04,22,07,36,4.70
2018,04,22,07,37,4.70
2018,04,22,07,38,4.80
2018,04,22,07,39,4.80
2018,04,22,07,40,4.90
2018,04,22,07,41,4.90
2018,04,22,07,42,5.00
2018,04,22,07,43,5.10
2018,04,22,07,44,5.10
2018,04,22,07,45,5.20
2018,04,22,07,46,5.20
2018,04,22,07,47,5.30
2018,04,22,07,48,5.30
2018,04,22,07,49,5.30
2018,04,22,07,50,5.40
2018,04,22,07,51,5.40
2018,04,22,07,52,5.40
2018,04,22,07,53,5.40
2018,04,22,07,54,5.50
2018,04,22,07,55,5.50
2018,04,22,07,56,5.60
2018,04,22,07,57,5.60
2018,04,22,07,58,5.60
2018,04,22,07,59,5.70
2018,04,22,08,00,5.70
2018,04,22,08,01,5.80
2018,04,22,08,02,5.80
2018,04,22,08,03,5.90
2018,04,22,08,04,5.90
2018,04,22,08,05,6.00
2018,04,22,08,06,6.00
2018,04,22,08,07,6.10
2018,04,22,08,08,6.10
2018,04,22,08,09,6.20
2018,04,22,08,10,6.20
2018,04,22,08,11,6.30
2018,04,22,08,12,6.40
2018,04,22,08,13,6.40
2018,04,22,08,14,6.50
2018,04,22,08,15,6.50
2018,04,22,08,16,6.60
2018,04,22,08,17,6.70
2018,04,22,08,18,6.70
2018,04,22,08,19,6.80
2018,04,22,08,20,6.80
2018,04,22,08,21,6.90
2018,04,22,08,22,7.00
2018,04,22,08,23,7.00
2018,04,22,08,24,7.10
2018,04,22,08,25,7.20
2018,04,22,08,26,7.20
2018,04,22,08,27,7.30
2018,04,22,08,28,7.40
2018,04,22,08,29,7.40
2018,04,22,08,30,7.50
2018,04,22,08,31,7.60
2018,04,22,08,32,7.70
2018,04,22,08,33,7.80
2018,04,22,08,34,7.90
2018,04,22,08,35,8.00
2018,04,22,08,36,8.00
2018,04,22,08,37,8.10
2018,04,22,08,38,8.20
2018,04,22,08,39,8.20
2018,04,22,08,40,8.20
2018,04,22,08,41,8.20
2018,04,22,08,42,8.30
2018,04,22,08,43,8.30
2018,04,22,08,44,8.30
2018,04,22,08,45,8.30
2018,04,22,08,46,8.30
2018,04,22,08,47,8.30
2018,04,22,08,48,8.40
2018,04,22,08,49,8.40
2018,04,22,08,50,8.50
2018,04,22,08,51,8.50
2018,04,22,08,52,8.60
2018,04,22,08,53,8.60
2018,04,22,08,54,8.60
2018,04,22,08,55,8.70
2018,04,22,08,56,8.70
2018,04,22,08,57,8.70
2018,04,22,08,58,8.70
2018,04,22,08,59,8.60
2018,04,22,09,00,8.60
2018,04,22,09,01,8.60
2018,04,22,09,02,8.60
2018,04,22,09,03,8.60
2018,04,22,09,04,8.60
2018,04,22,09,05,8.60
2018,04,22,09,06,8.60
2018,04,22,09,07,8.60
2018,04,22,09,08,8.60
2018,04,22,09,26,8.80
2018,04,22,12,24,11.60
2018,04,22,12,25,11.60
2018,04,22,12,26,11.60
2018,04,22,12,27,11.60
2018,04,22,12,28,11.60
2018,04,22,12,29,11.60
2018,04,22,12,30,11.60
2018,04,22,12,31,11.60
2018,04,22,12,32,11.60
2018,04,22,12,33,11.60
2018,04,22,12,34,11.60
2018,04,22,12,35,11.60
2018,04,22,12,36,11.70
2018,04,22,12,37,11.70
2018,04,22,12,38,11.70
2018,04,22,12,39,11.70
2018,04,22,12,40,11.70
2018,04,22,12,41,11.80
2018,04,22,12,42,11.80
2018,04,22,12,43,11.70
2018,04,22,12,44,11.70
2018,04,22,12,45,11.70
2018,04,22,12,46,11.70
2018,04,22,12,47,11.70
2018,04,22,12,48,11.80
2018,04,22,12,49,11.80
2018,04,22,12,50,11.80
2018,04,22,12,51,11.80
2018,04,22,12,52,11.80
2018,04,22,12,53,11.80
2018,04,22,12,54,11.80
2018,04,22,12,55,11.80
2018,04,22,12,56,11.70
2018,04,22,12,57,11.70
2018,04,22,12,58,11.70
2018,04,22,12,59,11.70
2018,04,22,13,00,11.70
2018,04,22,13,01,11.80
2018,04,22,13,02,11.80
2018,04,22,13,03,11.90
2018,04,22,13,04,11.90
2018,04,22,13,05,12.00
2018,04,22,13,06,12.00
2018,04,22,13,07,11.90
2018,04,22,13,08,11.90
2018,04,22,13,09,11.80
2018,04,22,13,10,11.80
2018,04,22,13,11,11.80
2018,04,22,13,12,11.90
2018,04,22,13,13,11.80
2018,04,22,13,14,11.80
2018,04,22,13,15,11.80
2018,04,22,13,16,11.90
2018,04,22,13,17,11.90
2018,04,22,13,18,11.90
2018,04,22,13,19,12.00
2018,04,22,13,20,12.10
2018,04,22,13,21,12.20
2018,04,22,13,22,12.20
2018,04,22,13,23,12.20
2018,04,22,13,24,12.20
2018,04,22,13,25,12.10
2018,04,22,13,26,12.10
2018,04,22,13,27,12.10
2018,04,22,13,28,12.20
2018,04,22,13,29,12.20
2018,04,22,13,30,12.10
2018,04,22,13,31,12.10
2018,04,22,13,32,12.10
2018,04,22,13,33,12.00
2018,04,22,13,34,12.00
2018,04,22,13,35,12.00
2018,04,22,13,36,12.00
2018,04,22,13,37,12.10
2018,04,22,13,38,12.20
2018,04,22,13,39,12.20
2018,04,22,13,40,12.20
2018,04,22,13,41,12.20
2018,04,22,13,42,12.20
2018,04,22,13,43,12.20
2018,04,22,13,44,12.20
2018,04,22,13,45,12.20
2018,04,22,13,46,12.30
2018,04,22,13,47,12.40
2018,04,22,13,48,12.50
2018,04,22,13,49,12.50
2018,04,22,13,50,12.50
2018,04,22,13,51,12.40
2018,04,22,13,52,12.50
2018,04,22,13,53,12.50
2018,04,22,13,54,12.50
2018,04,22,13,55,12.50
2018,04,22,13,56,12.40
2018,04,22,13,57,12.40
2018,04,22,13,58,12.40
2018,04,22,13,59,12.30
2018,04,22,14,00,12.30
2018,04,22,14,01,12.40
2018,04,22,14,02,12.50
2018,04,22,14,03,12.60
2018,04,22,14,04,12.70
2018,04,22,14,05,12.80
2018,04,22,14,06,12.70
2018,04,22,14,07,12.60
2018,04,22,14,08,12.60
2018,04,22,14,09,12.60
2018,04,22,14,10,12.60
2018,04,22,14,11,12.60
2018,04,22,14,12,12.60
2018,04,22,14,13,12.50
2018,04,22,14,14,12.50
2018,04,22,14,15,12.50
2018,04,22,14,16,12.50
2018,04,22,14,17,12.50
2018,04,22,14,18,12.60
2018,04,22,14,19,12.60
2018,04,22,14,20,12.70
2018,04,22,14,21,12.70
2018,04,22,14,22,12.70
2018,04,22,14,23,12.80
2018,04,22,14,24,12.80
2018,04,22,14,25,12.80
2018,04,22,14,26,12.90
2018,04,22,14,27,13.00
2018,04,22,14,28,13.10
2018,04,22,14,29,13.20
2018,04,22,14,30,13.20
2018,04,22,14,31,13.30
2018,04,22,14,32,13.30
2018,04,22,14,33,13.20
2018,04,22,14,34,13.20
2018,04,22,14,35,13.30
2018,04,22,14,36,13.30
2018,04,22,14,37,13.40
2018,04,22,14,38,13.50
2018,04,22,14,39,13.50
2018,04,22,14,40,13.50
2018,04,22,14,41,13.40
2018,04,22,14,42,13.30
2018,04,22,14,43,13.30
2018,04,22,14,44,13.30
2018,04,22,14,45,13.30
2018,04,22,14,46,13.30
2018,04,22,14,47,13.30
2018,04,22,14,48,13.30
2018,04,22,14,49,13.30
2018,04,22,14,50,13.30
2018,04,22,14,51,13.30
2018,04,22,14,52,13.30
2018,04,22,14,53,13.30
2018,04,22,14,54,13.40
2018,04,22,14,55,13.40
2018,04,22,14,56,13.40
2018,04,22,14,57,13.40
2018,04,22,14,58,13.50
2018,04,22,14,59,13.50
2018,04,22,15,00,13.50
2018,04,22,15,01,13.60
2018,04,22,15,02,13.60
2018,04,22,15,03,13.50
2018,04,22,15,04,13.50
2018,04,22,15,05,13.50
2018,04,22,15,06,13.50
2018,04,22,15,07,13.60
2018,04,22,15,08,13.60
2018,04,22,15,09,13.60
2018,04,22,15,10,13.60
2018,04,22,15,11,13.60
2018,04,22,15,12,13.70
2018,04,22,15,13,13.70
2018,04,22,15,14,13.70
2018,04,22,15,15,13.70
2018,04,22,15,16,13.70
2018,04,22,15,17,13.70
2018,04,22,15,18,13.70
2018,04,22,15,19,13.70
2018,04,22,15,20,13.80
2018,04,22,15,21,13.80
2018,04,22,15,22,13.80
2018,04,22,15,23,13.80
2018,04,22,15,24,13.80
2018,04,22,15,25,13.80
2018,04,22,15,26,13.90
2018,04,22,15,27,13.90
2018,04,22,15,28,14.00
2018,04,22,15,29,14.00
2018,04,22,15,30,14.10
2018,04,22,15,31,14.10
2018,04,22,15,32,14.10
2018,04,22,15,33,14.10
2018,04,22,15,34,14.10
2018,04,22,15,35,14.10
2018,04,22,15,36,14.10
2018,04,22,15,37,14.00
2018,04,22,15,38,13.90
2018,04,22,15,39,13.90
2018,04,22,15,40,13.80
2018,04,22,15,41,13.70
2018,04,22,15,42,13.70
2018,04,22,15,43,13.70
2018,04,22,15,44,13.80
2018,04,22,15,45,13.80
2018,04,22,15,46,13.80
2018,04,22,15,47,13.90
2018,04,22,15,48,14.00
2018,04,22,15,49,14.10
2018,04,22,15,50,14.10
2018,04,22,15,51,14.10
2018,04,22,15,52,14.10
2018,04,22,15,53,14.10
2018,04,22,15,54,14.20
2018,04,22,15,55,14.20
2018,04,22,15,56,14.20
2018,04,22,15,57,14.20
2018,04,22,15,58,14.20
2018,04,22,15,59,14.20
2018,04,22,16,00,14.30
2018,04,22,16,01,14.30
2018,04,22,16,02,14.30
2018,04,22,16,03,14.40
2018,04,22,16,04,14.50
2018,04,22,16,05,14.50
2018,04,22,16,06,14.50
2018,04,22,16,07,14.50
2018,04,22,16,08,14.40
2018,04,22,16,09,14.40
2018,04,22,16,10,14.40
2018,04,22,16,11,14.40
2018,04,22,16,12,14.40
2018,04,22,16,13,14.30
2018,04,22,16,14,14.40
2018,04,22,16,15,14.40
2018,04,22,16,16,14.40
2018,04,22,16,17,14.40
2018,04,22,16,18,14.50
2018,04,22,16,19,14.50
2018,04,22,16,20,14.50
2018,04,22,16,21,14.50
2018,04,22,16,22,14.50
2018,04,22,16,23,14.50
2018,04,22,16,24,14.50
2018,04,22,16,25,14.50
2018,04,22,16,26,14.50
2018,04,22,16,27,14.50
2018,04,22,16,28,14.50
2018,04,22,16,29,14.60
2018,04,22,16,30,14.60
2018,04,22,16,31,14.70
2018,04,22,16,32,14.70
2018,04,22,16,33,14.70
2018,04,22,16,34,14.60
2018,04,22,16,35,14.60
2018,04,22,16,36,14.60
2018,04,22,16,37,14.50
2018,04,22,16,38,14.50
2018,04,22,16,39,14.40
2018,04,22,16,40,14.40
2018,04,22,16,41,14.40
2018,04,22,16,42,14.50
2018,04,22,16,43,14.50
2018,04,22,16,44,14.60
2018,04,22,16,45,14.60
2018,04,22,16,46,14.70
2018,04,22,16,47,14.70
2018,04,22,16,48,14.80
2018,04,22,16,49,14.80
2018,04,22,16,50,14.90
2018,04,22,16,51,15.00
2018,04,22,16,52,15.00
2018,04,22,16,53,15.10
2018,04,22,16,54,15.00
2018,04,22,16,55,15.00
2018,04,22,16,56,14.90
2018,04,22,16,57,14.90
2018,04,22,16,58,14.80
2018,04,22,16,59,14.80
2018,04,22,17,00,14.90
2018,04,22,17,01,14.90
2018,04,22,17,02,15.00
2018,04,22,17,03,15.10
2018,04,22,17,04,15.20
2018,04,22,17,05,15.20
2018,04,22,17,06,15.10
2018,04,22,17,07,15.00
2018,04,22,17,08,15.00
2018,04,22,17,09,14.90
2018,04,22,17,10,14.80
2018,04,22,17,11,14.80
2018,04,22,17,12,14.80
2018,04,22,17,13,14.70
2018,04,22,17,14,14.80
2018,04,22,17,15,14.80
2018,04,22,17,16,14.80
2018,04,22,17,17,14.80
2018,04,22,17,18,14.80
2018,04,22,17,19,14.80
2018,04,22,17,20,14.90
2018,04,22,17,21,15.00
2018,04,22,17,22,15.00
2018,04,22,17,23,15.10
2018,04,22,17,24,15.10
2018,04,22,17,25,15.10
2018,04,22,17,26,15.10
2018,04,22,17,27,15.10
2018,04,22,17,28,15.10
2018,04,22,17,29,15.00
2018,04,22,17,30,15.00
2018,04,22,17,31,15.00
2018,04,22,17,32,15.00
2018,04,22,17,33,14.90
2018,04,22,17,34,14.90
2018,04,22,17,35,14.90
2018,04,22,17,36,14.80
2018,04,22,17,37,14.80
2018,04,22,17,38,14.80
2018,04,22,17,39,14.70
2018,04,22,17,40,14.70
2018,04,22,17,41,14.60
2018,04,22,17,42,14.60
2018,04,22,17,43,14.60
2018,04,22,17,44,14.60
2018,04,22,17,45,14.60
2018,04,22,17,46,14.60
2018,04,22,17,47,14.60
2018,04,22,17,48,14.60
2018,04,22,17,49,14.60
2018,04,22,17,50,14.60
2018,04,22,17,51,14.60
2018,04,22,17,52,14.60
2018,04,22,17,53,14.50
2018,04,22,17,54,14.50
2018,04,22,17,55,14.60
2018,04,22,17,56,14.60
2018,04,22,17,57,14.70
2018,04,22,17,58,14.70
2018,04,22,17,59,14.80
2018,04,22,18,00,14.80
2018,04,22,18,01,14.80
2018,04,22,18,02,14.80
2018,04,22,18,03,14.80
2018,04,22,18,04,14.80
2018,04,22,18,05,14.80
2018,04,22,18,06,14.80
2018,04,22,18,07,14.70
2018,04,22,18,08,14.70
2018,04,22,18,09,14.70
2018,04,22,18,10,14.70
2018,04,22,18,11,14.70
2018,04,22,18,12,14.70
2018,04,22,18,13,14.70
2018,04,22,18,14,14.70
2018,04,22,18,15,14.60
2018,04,22,18,16,14.60
2018,04,22,18,17,14.60
2018,04,22,18,18,14.60
2018,04,22,18,19,14.50
2018,04,22,18,20,14.40
2018,04,22,18,21,14.40
2018,04,22,18,22,14.40
2018,04,22,18,23,14.40
2018,04,22,18,24,14.40
2018,04,22,18,25,14.40
2018,04,22,18,26,14.30
2018,04,22,18,27,14.30
2018,04,22,18,28,14.30
2018,04,22,18,29,14.30
2018,04,22,18,30,14.30
2018,04,22,18,31,14.30
2018,04,22,18,32,14.20
2018,04,22,18,33,14.20
2018,04,22,18,34,14.10
2018,04,22,18,35,14.10
2018,04,22,18,36,14.00
2018,04,22,18,37,14.00
2018,04,22,18,38,14.00
2018,04,22,18,39,14.00
2018,04,22,18,40,14.00
2018,04,22,18,41,14.10
2018,04,22,18,42,14.10
2018,04,22,18,43,14.10
2018,04,22,18,44,14.10
2018,04,22,18,45,14.10
2018,04,22,18,46,14.20
2018,04,22,18,47,14.10
2018,04,22,18,48,14.10
2018,04,22,18,49,14.10
2018,04,22,18,50,14.10
2018,04,22,18,51,14.00
2018,04,22,18,52,14.00
2018,04,22,18,53,14.00
2018,04,22,18,54,13.90
2018,04,22,18,55,13.90
2018,04,22,18,56,13.80
2018,04,22,18,57,13.70
2018,04,22,18,58,13.60
2018,04,22,18,59,13.50
2018,04,22,19,00,13.40
2018,04,22,19,01,13.20
2018,04,22,19,02,13.10
2018,04,22,19,03,13.00
2018,04,22,19,04,13.00
2018,04,22,19,05,12.90
2018,04,22,19,06,12.80
2018,04,22,19,07,12.80
2018,04,22,19,08,12.70
2018,04,22,19,09,12.60
2018,04,22,19,10,12.60
2018,04,22,19,11,12.60
2018,04,22,19,12,12.50
2018,04,22,19,13,12.50
2018,04,22,19,14,12.50
2018,04,22,19,15,12.50
2018,04,22,19,16,12.60
2018,04,22,19,17,12.60
2018,04,22,19,18,12.60
2018,04,22,19,19,12.60
2018,04,22,19,20,12.60
2018,04,22,19,21,12.60
2018,04,22,19,22,12.60
2018,04,22,19,23,12.50
2018,04,22,19,24,12.50
2018,04,22,19,25,12.50
2018,04,22,19,26,12.50
2018,04,22,19,27,12.50
2018,04,22,19,28,12.50
2018,04,22,19,29,12.40
2018,04,22,19,30,12.40
2018,04,22,19,31,12.40
2018,04,22,19,32,12.40
2018,04,22,19,33,12.30
2018,04,22,19,34,12.30
2018,04,22,19,35,12.30
2018,04,22,19,36,12.30
2018,04,22,19,37,12.20
2018,04,22,19,38,12.20
2018,04,22,19,39,12.10
2018,04,22,19,40,12.10
2018,04,22,19,41,12.10
2018,04,22,19,42,12.00
2018,04,22,19,43,12.00
2018,04,22,19,44,12.00
2018,04,22,19,45,11.90
2018,04,22,19,46,11.90
2018,04,22,19,47,11.90
2018,04,22,19,48,11.90
2018,04,22,19,49,11.80
2018,04,22,19,50,11.80
2018,04,22,19,51,11.80
2018,04,22,19,52,11.80
2018,04,22,19,53,11.70
2018,04,22,19,54,11.70
2018,04,22,19,55,11.70
2018,04,22,19,56,11.70
2018,04,22,19,57,11.70
2018,04,22,19,58,11.70
2018,04,22,19,59,11.70
2018,04,22,20,00,11.70
2018,04,22,20,01,11.70
2018,04,22,20,02,11.70
2018,04,22,20,03,11.70
2018,04,22,20,04,11.70
2018,04,22,20,05,11.60
2018,04,22,20,06,11.60
2018,04,22,20,07,11.60
2018,04,22,20,08,11.60
2018,04,22,20,09,11.50
2018,04,22,20,10,11.50
2018,04,22,20,11,11.50
2018,04,22,20,12,11.40
2018,04,22,20,13,11.40
2018,04,22,20,14,11.30
2018,04,22,20,15,11.30
2018,04,22,20,16,11.30
2018,04,22,20,17,11.30
2018,04,22,20,18,11.20
2018,04,22,20,19,11.20
2018,04,22,20,20,11.10
2018,04,22,20,21,11.10
2018,04,22,20,22,11.10
2018,04,22,20,23,11.00
2018,04,22,20,24,11.00
2018,04,22,20,25,10.90
2018,04,22,20,26,10.90
2018,04,22,20,27,10.90
2018,04,22,20,28,10.80
2018,04,22,20,29,10.80
2018,04,22,20,30,10.80
2018,04,22,20,31,10.80
2018,04,22,20,32,10.70
2018,04,22,20,33,10.70
2018,04,22,20,34,10.70
2018,04,22,20,35,10.70
2018,04,22,20,36,10.60
2018,04,22,20,37,10.60
2018,04,22,20,38,10.60
2018,04,22,20,39,10.60
2018,04,22,20,40,10.50
2018,04,22,20,41,10.50
2018,04,22,20,42,10.50
2018,04,22,20,43,10.50
2018,04,22,20,44,10.50
2018,04,22,20,45,10.50
2018,04,22,20,46,10.40
2018,04,22,20,47,10.40
2018,04,22,20,48,10.40
2018,04,22,20,49,10.40
2018,04,22,20,50,10.40
2018,04,22,20,51,10.40
2018,04,22,20,52,10.30
2018,04,22,20,53,10.30
2018,04,22,20,54,10.30
2018,04,22,20,55,10.30
2018,04,22,20,56,10.20
2018,04,22,20,57,10.20